Location: Germanns
(48.6667°N, 15.4500°E)
Time: 18:41:06
(UTC+00:00)

Daily predictions for brighter satellites

Satellite Brightness Start Highest point End
(mag) Time Altitude Azimuth Time Altitude Azimuth Time Altitude Azimuth
Okean 1-7 4.4 15:31:29 10° SE 15:34:44 21° E 15:38:02 10° NE
Meteor 1-10 Rocket 4.3 15:29:30 10° S 15:35:05 87° W 15:40:47 10° NNE
STARLINK-52 3.5 15:32:34 10° SW 15:36:01 60° SSE 15:39:31 10° ENE
Cosmos 1666 3.2 15:33:47 10° N 15:37:18 37° ENE 15:40:47 10° SE
Cosmos 1908 Rocket 3.9 15:34:38 10° N 15:38:51 43° ENE 15:43:00 10° SSE
CZ-4 R/B 3.2 15:39:09 10° ENE 15:39:26 10° ENE 15:39:44 10° NE
Cosmos 2242 Rocket 4.0 15:37:17 10° SSE 15:41:40 47° E 15:46:04 10° NNE
ALOS 2.9 15:37:32 10° S 15:42:10 63° W 15:46:49 10° NNW
IRS-1C Rocket 4.3 15:38:01 10° SE 15:43:04 49° ENE 15:48:09 10° N
STARLINK-29 3.3 15:40:36 10° WSW 15:44:08 75° SSE 15:47:40 10° ENE
YAOGAN 6 4.4 15:42:37 10° E 15:44:12 13° ENE 15:45:48 10° NE
Abrixas rocket 4.5 15:43:55 10° SSE 15:45:12 12° SE 15:46:29 10° ESE
COSMOS 2428 3.7 15:40:22 10° SW 15:45:47 44° NW 15:51:16 10° NNE
H-2A R/B 4.4 15:43:29 10° NNW 15:46:18 18° WNW 15:49:07 10° WSW
Cosmos 1975 4.3 15:44:50 10° NNE 15:47:29 17° ENE 15:50:07 10° ESE
Meteor 1-27 Rocket 3.8 15:42:50 10° S 15:48:38 77° E 15:54:33 10° NNE
COSMO-SKYMED 1 4.5 15:46:58 10° ENE 15:48:42 12° E 15:50:25 10° ESE
Meteor 1-11 Rocket 4.1 15:43:35 10° NNW 15:49:34 76° W 15:55:28 10° S
YAOGAN 1 4.2 15:51:43 10° E 15:53:52 14° ENE 15:56:02 10° NNE
CZ-4B R/B 3.7 15:48:38 10° S 15:53:57 66° WSW 15:59:25 10° NNW
Cosmos 292 Rocket 3.9 15:49:30 10° NNW 15:54:24 82° WSW 15:59:15 10° SSE
Cosmos 1174 4.4 15:52:28 10° SSW 15:57:11 48° ESE 16:00:48 11° NE
CZ-4B R/B 3.0 15:54:00 10° N 15:57:15 36° WNW 16:00:25 10° SW
Cosmos 1733 Rocket 4.1 15:53:15 10° NNW 15:57:31 51° W 16:01:47 10° S
Cosmos 921 Rocket 3.0 15:53:20 10° NNW 15:57:36 58° ENE 16:01:54 10° SSE
Cosmos 2360 Rocket 4.3 15:55:51 10° W 15:59:40 18° NW 16:03:30 10° N
Cosmos 2278 Rocket 3.9 15:54:34 10° NW 15:59:45 38° WSW 16:04:54 10° S
Okean-O 3.2 15:56:44 10° SE 16:00:43 34° ENE 16:04:44 10° N
NOSS 3-1 (C) 4.4 15:56:10 10° NW 16:02:53 42° NNE 16:10:37 10° ESE
USA 267 3.3 15:59:21 10° ESE 16:05:53 76° NNE 16:12:26 10° NW
ATLAS 5 CENTAUR R/B 1.0 16:03:46 10° SSW 16:05:58 44° SE 16:07:18 18° ENE
Cosmos 1263 4.1 16:05:56 10° S 16:08:53 65° E 16:12:08 10° NNE
Cosmos 2369 Rocket 2.8 16:03:56 10° NNW 16:09:02 34° NE 16:14:08 10° ESE
Cosmos 1140 Rocket 4.2 16:05:23 10° SSE 16:09:57 33° ESE 16:14:11 12° NE
Nadezhda 4 Rocket 4.1 16:04:04 10° S 16:10:25 84° W 16:16:45 10° N
CORIOLIS 4.1 16:08:05 10° SSE 16:13:30 69° ENE 16:18:55 10° N
USA 229 DEB 4.2 16:07:37 10° NW 16:14:27 46° NE 16:21:35 10° ESE
USA 229 4.2 16:07:44 10° NW 16:14:32 45° NE 16:21:39 10° ESE
PSLV R/B 3.9 16:13:20 10° NNE 16:17:30 86° ESE 16:21:36 10° SSW
Cosmos 1743 2.9 16:14:09 10° N 16:17:55 47° ENE 16:21:40 10° SSE
Envisat 3.2 16:13:35 10° SE 16:18:28 49° ENE 16:23:23 10° N
SL-16 R/B 2.3 16:13:15 10° SSW 16:18:50 64° ESE 16:24:21 11° NNE
NOSS 3-1 (A) 4.4 16:13:08 10° NW 16:19:43 39° NNE 16:26:42 12° E
STARLINK-43 4.0 16:16:55 10° SW 16:20:26 42° SE 16:22:39 20° E
Cosmos 1553 Rocket 4.3 16:15:42 10° N 16:21:50 46° ENE 16:27:59 10° SSE
BREEZE-M DEB (TANK) 3.3 16:19:26 10° WNW 16:24:49 45° SW 16:27:17 10° SE
Cosmos 2237 Rocket 2.9 16:20:15 10° SW 16:25:48 51° NW 16:31:22 10° NNE
Cosmos 407 Rocket 3.5 16:21:43 10° S 16:26:52 66° ESE 16:31:56 11° NNE
Cosmos 489 Rocket 4.5 16:20:41 10° NNW 16:27:01 64° ENE 16:33:19 10° SE
Uosat 12 SS-18 rocket 4.2 16:22:40 10° NW 16:27:32 56° NE 16:31:48 10° SE
Cosmos 1943 Rocket 2.3 16:22:24 10° NNW 16:27:55 51° NE 16:33:20 10° SE
Cosmos 1536 4.4 16:25:48 10° NNW 16:29:31 37° W 16:33:11 10° SSW
Feng Yun 1-1 Rocket 4.4 16:25:43 10° S 16:31:06 76° WSW 16:36:34 10° NNW
Cosmos 2026 Rocket 3.9 16:25:22 10° S 16:31:21 68° E 16:37:24 10° NNE
Cosmos 2219 Rocket 4.0 16:26:53 10° W 16:31:23 24° NW 16:35:56 10° N
STARLINK-67 2.6 16:29:53 10° WNW 16:32:38 59° NNE 16:33:30 36° E
Cosmos 2344 4.4 16:25:08 10° NW 16:33:54 52° NE 16:45:47 10° ESE
Cosmos 1782 Rocket 3.5 16:29:54 10° N 16:34:17 89° E 16:38:37 10° S
FengYun 1-2 T 4.3 16:29:24 10° SE 16:34:43 52° ENE 16:40:05 10° N
CZ-4C R/B 3.4 16:32:30 10° SSE 16:36:14 21° ESE 16:37:20 20° E
SKYMED 2 4.2 16:34:58 20° NE 16:37:17 34° E 16:41:15 10° SSE
Cosmos 2333 Rocket 4.1 16:33:11 10° W 16:37:41 23° NW 16:42:13 10° N
Lacrosse 5 rocket 2.7 16:34:04 10° WNW 16:37:44 28° NNW 16:39:35 20° NNE
FALCON 9 DEB 3.5 16:35:03 10° W 16:38:30 53° NNW 16:39:56 30° NE
STARLINK-46 3.4 16:38:55 10° WNW 16:41:22 33° N 16:41:26 32° NNE
SL-4 R/B 1.9 16:38:09 10° WNW 16:41:56 64° NNE 16:43:44 30° E
STARLINK-80 4.1 16:40:54 10° SSW 16:44:27 39° SE 16:45:38 30° ESE
SeaSat 1 4.4 16:46:56 13° NNE 16:46:56 13° NNE 16:48:32 10° N
Lacrosse 5 2.9 16:42:24 10° S 16:46:42 28° SE 16:48:09 24° E
CSL-04 Rocket 3.9 16:41:48 10° SE 16:46:46 43° ENE 16:51:47 10° N
Cosmos 1703 Rocket 4.0 16:42:18 10° SSW 16:46:46 67° WNW 16:51:15 10° N
Okean 1 3.2 16:44:54 10° S 16:48:53 81° E 16:52:16 14° NNE
Cosmos 405 Rocket 2.8 16:47:51 10° N 16:51:27 46° ENE 16:55:03 10° SSE
Meteor 2-4 Rocket 4.2 16:46:31 10° SSE 16:51:51 38° E 16:55:02 21° NE
Okean 2 Rocket 3.0 16:47:24 10° N 16:51:53 62° ENE 16:56:21 10° SSE
CZ-4 R/B 4.4 16:48:45 10° SSE 16:52:50 58° ENE 16:56:57 10° N
Cosmos 1417 Rocket 4.4 16:47:51 10° N 16:54:00 72° E 17:00:09 10° SSE
Aureole 1 Rocket 4.1 16:52:35 10° WSW 16:55:23 29° WNW 16:58:12 12° N
NOAA 12 4.3 16:50:17 10° S 16:55:34 72° WSW 17:00:52 10° NNW
ATLAS 2AS CENTAUR R/B 4.3 16:50:30 10° WNW 16:57:14 28° N 17:01:46 17° NE
STARLINK-60 3.7 16:54:45 10° W 16:57:59 41° N 16:58:26 39° NNE
BREEZE-M R/B 2.8 16:53:06 10° WNW 16:58:17 73° SSW 16:59:21 40° SE
Sich 1 Rocket 3.9 16:54:23 10° NNW 16:58:45 68° W 17:03:07 10° S
Cosmos 2221 Rocket 3.5 16:55:10 10° S 16:59:34 64° E 17:02:14 23° NNE
Ariane Rocket 4.3 17:03:39 22° NNE 17:03:39 22° NNE 17:06:05 10° N
Cosmos 1763 Rocket 3.8 17:02:49 10° N 17:07:36 39° ENE 17:07:43 39° ENE
Meteor 1-19 Rocket 4.0 17:02:32 10° S 17:07:59 75° E 17:12:46 14° NNE
CSL-04 Debris 4.1 17:04:27 10° SSE 17:09:50 66° ENE 17:15:13 10° N
Okean 1-7 4.2 17:07:51 10° SSW 17:12:01 43° WNW 17:16:14 10° N
STARLINK-52 3.7 17:09:57 10° W 17:13:22 45° NNW 17:13:24 45° N
USA 215 3.3 17:10:08 29° NE 17:13:46 75° NNW 17:20:17 10° WSW
CZ-4 R/B 1.1 17:09:58 10° SSE 17:13:49 87° ENE 17:17:42 10° NNW
Cosmos 1241 Rocket 4.4 17:07:38 10° SSW 17:13:59 75° ESE 17:17:00 33° NE
Meteor 2-13 Rocket 4.3 17:11:04 10° S 17:17:05 72° E 17:23:11 10° NNE
YAOGAN 6 3.0 17:13:41 10° S 17:17:13 62° W 17:20:50 10° NNW
Cosmos 2263 4.1 17:11:50 10° NNW 17:17:40 72° ENE 17:22:26 15° SE
BREEZE-M DEB (TANK) 2.9 17:14:26 10° W 17:18:05 39° SSW 17:18:32 36° S
Abrixas rocket 3.4 17:17:34 10° SW 17:19:38 34° SSW 17:19:38 34° SSW
STARLINK-29 4.0 17:18:09 10° W 17:21:14 41° NNW 17:21:14 41° NNW
Cosmos 1515 3.5 17:18:18 10° S 17:21:57 81° SSE 17:21:57 81° SSE
Cosmos 1300 Rocket 3.4 17:19:25 10° N 17:23:45 86° W 17:28:04 10° S
Cosmos 1975 3.7 17:20:22 10° NNW 17:24:15 48° W 17:28:07 10° SSW
COSMO-SKYMED 1 2.6 17:23:32 33° N 17:25:27 81° WNW 17:29:47 10° SSW
Cosmos 676 Rocket 4.1 17:23:13 10° SSW 17:28:23 74° WNW 17:30:53 31° NNE
YAOGAN 1 2.5 17:25:02 10° SSE 17:29:22 83° WSW 17:33:44 10° NNW
STARLINK-48 3.9 17:26:05 10° SW 17:29:22 54° S 17:29:22 54° S
Cosmos 1655 Rocket 3.9 17:24:43 10° S 17:31:02 89° WNW 17:37:20 10° N
Cosmos 1954 Rocket 4.1 17:28:36 10° SSW 17:33:46 71° WNW 17:36:01 34° N
Meteor 1-12 Rocket 4.3 17:30:14 10° NNW 17:36:06 82° W 17:41:50 10° S
NOAA 11 4.1 17:32:25 10° SSE 17:37:53 86° ENE 17:43:25 10° NNW
Okean 3 3.7 17:33:45 10° SSW 17:37:54 66° WNW 17:38:35 55° NNW
Lacrosse 4 Rocket 3.5 17:35:01 10° NNW 17:36:09 17° N 17:36:09 17° N
Cosmos 1943 3.1 17:37:14 10° SSW 17:42:48 66° ESE 17:42:49 66° ESE
Cosmos 1656 Rocket 3.5 17:40:43 10° NNW 17:46:04 73° NE 17:46:04 73° NE
IRIDIUM 104 4.3 17:41:11 10° S 17:46:24 84° W 17:48:54 32° N
USA 267 4.3 17:43:05 10° SSE 17:49:12 42° SW 17:55:23 10° WNW
Cosmos 2369 Rocket 3.0 17:47:50 10° NW 17:53:16 49° WSW 17:58:41 10° S
NOSS 3-1 (C) 4.2 17:46:57 10° NW 17:54:25 74° SW 18:01:10 18° SSE
Meteor 1-13 Rocket 4.0 17:49:53 10° S 17:55:29 88° E 17:55:45 82° NNE
IRIDIUM 114 4.5 17:50:22 10° S 17:55:33 71° W 17:58:03 31° N
IRS-1A Rocket 4.4 18:02:05 66° N 18:02:05 66° N 18:07:14 10° NNW
Cosmos 2266 Rocket 4.1 17:55:03 10° SSW 18:01:28 79° W 18:05:44 23° N
Cosmos 1741 Rocket 4.4 17:56:30 10° SSW 18:00:29 53° SSW 18:00:29 53° SSW
SL-16 R/B 3.9 17:58:34 10° WSW 18:03:25 28° NW 18:06:14 19° N
Cosmos 468 Rocket 4.3 17:58:46 10° NNW 18:03:55 63° WSW 18:04:48 54° SSW
USA 229 DEB 4.2 17:58:38 10° NW 18:05:46 62° WSW 18:10:45 22° SSE
USA 229 4.2 17:58:44 10° NW 18:05:51 62° WSW 18:10:44 23° SSE
USA 81 4.3 18:02:49 10° S 18:07:16 62° SW 18:07:16 62° SW
Cosmos 1603 4.0 18:04:38 10° SW 18:10:19 64° WNW 18:10:51 61° NNW
Cosmos 1943 Rocket 3.9 18:06:35 10° NW 18:11:25 30° WSW 18:16:11 10° SSW
NOSS 3-1 (A) 4.0 18:03:58 10° NW 18:11:26 82° SW 18:14:14 47° SSE
Lacrosse 5 rocket 3.9 18:14:19 10° NW 18:15:14 15° NW 18:15:14 15° NW
SL-4 R/B 4.3 18:17:43 10° WNW 18:19:21 23° W 18:19:21 23° W
CZ-4C R/B 2.7 18:18:44 10° SW 18:22:33 52° WSW 18:22:33 52° WSW
Lacrosse 5 3.1 18:24:14 10° WSW 18:27:22 38° WSW 18:27:22 38° WSW
ATLAS 2AS CENTAUR R/B 4.2 18:43:52 10° NW 18:49:13 29° N 18:49:13 29° N
USA 215 4.1 18:57:29 42° NW 18:57:29 42° NW 19:02:29 10° WNW
